Terminal Aerodrome Forecast
Issued by NWS

Home | Current Version | Previous Version | Graphics & Text | Print | Product List | Glossary Off
Versions: 1 2 3 4 5 6 7 8 9 10 11 12 13 14 15 16 17 18 19 20 21 22 23 24

000
FTUS43 KDDC 271000 AAB
TAFHYS
TAF AMD
KHYS 271000Z 2710/2806 13010KT P6SM OVC040
     FM271500 10011KT P6SM VCTS OVC030CB
     FM271800 36008KT P6SM BKN020
     FM272000 35014G22KT P6SM BKN025=

USA.gov is the U.S. government's official web portal to all federal, state and local government web resources and services.